This demonstration page uses our WeatherBlox Daily Observations layout. Learn more.

Left ArrowRight Arrow

44.8408, -93.29828

Hourly Observations for May 11, 2015

Temp ( °F °C ) Dew Point ( °F °C ) Humidity (%) Winds ( mph kmh ) Pressure ( in mb ) Visibility ( mi km ) Precip ( " mm )
12:24 am 00:24 Cloudy with Light Rain 55 13 54 12 94 94 E 15 24 29.77 1008 4 6 0.00 0.00
12:31 am 00:31 Cloudy with Light Rain 55 12.8 54 12.2 96 96 E 14 22 29.77 1008 4 6 0.12 3.05
12:38 am 00:38 Cloudy with Light Rain 55 13 54 12 94 94 E 15 24 29.77 1008 4 6 0.00 0.00
12:45 am 00:45 Cloudy with Light Rain 55 12.8 53 11.7 93 93 E 17 28 29.77 1008 8 13 0.13 3.30
12:53 am 00:53 Cloudy with Light Rain 55 12.8 53 11.7 93 93 E 16 26 29.77 1008 8 13 0.13 3.30
1:53 am 01:53 Cloudy with Light Rain 54 12.2 52 11.1 93 93 E 14 22 29.75 1007 8 13 0.04 1.02
2:53 am 02:53 Cloudy 54 12.2 52 11.1 93 93 E 14 22 29.71 1006 7 11 0.00 0.03
3:53 am 03:53 Cloudy with Mist and Fog 53 11.7 52 11.1 96 96 ESE 15 24 29.67 1005 5 8 0.00 0.03
4:53 am 04:53 Cloudy with Mist and Fog 54 12.2 53 11.7 97 97 SE 16 26 29.67 1005 5 8 0.00 0.03
5:53 am 05:53 Cloudy with Mist and Fog 54 12.2 53 11.7 97 97 ESE 10 17 29.64 1004 6 10 0.00 0.00
6:53 am 06:53 Cloudy 55 12.8 51 10.6 87 87 WSW 14 22 29.65 1004 9 14 0.00 0.00
7:10 am 07:10 Cloudy 54 12 50 10 88 88 WSW 7 11 29.65 1004 10 16 0.00 0.00
7:21 am 07:21 Cloudy 54 12.2 51 10.6 90 90 WSW 7 11 29.65 1004 10 16 0.00 0.00
7:38 am 07:38 Cloudy 53 11.7 48 8.9 83 83 SW 15 24 29.65 1004 10 16 0.00 0.00
7:53 am 07:53 Cloudy 52 11.1 45 7.2 77 77 WSW 13 20 29.67 1005 10 16 0.00 0.00
8:00 am 08:00 Cloudy 52 11 45 7 77 77 SW 14 22 29.68 1005 10 16 0.00 0.00
8:53 am 08:53 Cloudy 51 10.6 45 7.2 80 80 SW 12 19 29.69 1005 10 16 0.00 0.00
9:53 am 09:53 Cloudy 50 10 43 6.1 77 77 SSW 10 17 29.70 1006 10 16 0.00 0.00
10:53 am 10:53 Cloudy 49 9.4 43 6.1 80 80 SSW 13 20 29.70 1006 10 16 0.00 0.00
11:53 am 11:53 Cloudy 49 9.4 42 5.6 77 77 S 12 19 29.71 1006 10 16 0.00 0.00
12:08 pm 12:08 Cloudy 48 9 43 6 82 82 SSW 15 24 29.74 1007 10 16 0.00 0.00
12:20 pm 12:20 Cloudy 49 9.4 42 5.6 77 77 SW 14 22 29.74 1007 10 16 0.00 0.00
12:53 pm 12:53 Cloudy with Drizzle 48 8.9 44 6.7 86 86 SW 10 17 29.70 1006 8 13 0.00 0.03
1:05 pm 13:05 Cloudy with Drizzle 48 8.9 44 6.7 86 86 SSW 12 19 29.71 1006 9 14 0.00 0.03
1:53 pm 13:53 Cloudy 49 9.4 42 5.6 77 77 SSW 14 22 29.70 1006 10 16 0.00 0.03
2:53 pm 14:53 Cloudy with Light Rain 49 9.4 44 6.7 83 83 SSW 9 15 29.70 1006 8 13 0.00 0.03
3:53 pm 15:53 Cloudy with Drizzle 49 9.4 45 7.2 86 86 SSW 7 11 29.70 1006 8 13 0.00 0.03
4:31 pm 16:31 Cloudy 50 10 45 7.2 83 83 SSW 8 13 29.71 1006 10 16 0.00 0.03
4:53 pm 16:53 Cloudy 50 10 44 6.7 80 80 SSW 9 15 29.70 1006 10 16 0.00 0.03
5:28 pm 17:28 Cloudy with Drizzle 49 9.4 46 7.8 90 90 SSW 10 17 29.74 1007 2 3 0.00 0.03
5:35 pm 17:35 Cloudy with Drizzle 49 9.4 47 8.3 93 93 SW 8 13 29.74 1007 2 3 0.00 0.03
5:49 pm 17:49 Cloudy with Mist and Fog 48 9 46 8 94 94 SW 14 22 29.74 1007 3 5 0.00 0.03
5:53 pm 17:53 Cloudy with Drizzle 49 9.4 46 7.8 90 90 WSW 16 26 29.71 1006 4 6 0.00 0.03
6:10 pm 18:10 Cloudy 48 8.9 45 7.2 89 89 WSW 13 20 29.74 1007 10 16 0.00 0.03
6:30 pm 18:30 Cloudy 48 9 45 7 87 87 SW 14 22 29.74 1007 10 16 0.00 0.00
6:53 pm 18:53 Cloudy 48 8.9 44 6.7 86 86 WSW 15 24 29.71 1006 10 16 0.00 0.03
7:17 pm 19:17 Cloudy 48 8.9 43 6.1 83 83 WSW 14 22 29.74 1007 10 16 0.00 0.00
7:53 pm 19:53 Cloudy 47 8.3 42 5.6 83 83 SW 13 20 29.72 1006 10 16 0.00 0.00
8:12 pm 20:12 Cloudy 46 8 43 6 87 87 SW 14 22 29.74 1007 10 16 0.00 0.00
8:53 pm 20:53 Cloudy with Drizzle 45 7.2 43 6.1 93 93 SW 15 24 29.72 1006 4 6 0.00 0.03
9:28 pm 21:28 Cloudy with Drizzle 46 8 45 7 93 93 SW 9 15 29.74 1007 4 6 0.00 0.00
9:53 pm 21:53 Cloudy with Drizzle 46 7.8 45 7.2 96 96 WSW 10 17 29.73 1007 7 11 0.01 0.25
10:18 pm 22:18 Cloudy with Light Rain 46 8 46 8 100 100 WSW 9 15 29.74 1007 2 3 0.00 0.00
10:36 pm 22:36 Cloudy with Light Rain 48 9 46 8 94 94 WNW 16 26 29.77 1008 5 8 0.00 0.00
10:53 pm 22:53 Cloudy 47 8.3 45 7.2 93 93 W 15 24 29.74 1007 10 16 0.02 0.51
11:01 pm 23:01 Cloudy 47 8.3 45 7.2 93 93 W 16 26 29.77 1008 10 16 0.00 0.00
11:53 pm 23:53 Cloudy with Drizzle 45 7.2 44 6.7 97 97 W 16 26 29.77 1008 6 10 0.00 0.03

Powered by AerisWeather